Hourly Weather Ruchki

Today, 16 April, Friday

Time Temperature Precipitation Wind Pressure Humidity
00:00 +3°C° 0 mm 5 mps 755 mmHg 78%
01:00 +3°C° 0 mm 5 mps 755 mmHg 79%
02:00 +3°C° 0 mm 4 mps 755 mmHg 80%
03:00 +3°C° 0 mm 4 mps 755 mmHg 82%
04:00 +2°C° 0 mm 5 mps 755 mmHg 83%
05:00 +1°C° 0 mm 5 mps 755 mmHg 84%
06:00 +2°C° 0 mm 5 mps 755 mmHg 81%
07:00 +3°C° 0 mm 5 mps 756 mmHg 78%
08:00 +5°C° 0 mm 5 mps 756 mmHg 75%
09:00 +6°C° 0 mm 5 mps 756 mmHg 71%
10:00 +7°C° 0 mm 5 mps 756 mmHg 68%
11:00 +8°C° 0 mm 5 mps 756 mmHg 64%
12:00 +9°C° 0 mm 5 mps 756 mmHg 62%
13:00 +10°C° 0 mm 5 mps 756 mmHg 59%
14:00 +12°C° 0 mm 5 mps 756 mmHg 57%
15:00 +10°C° 0 mm 5 mps 756 mmHg 56%
16:00 +10°C° 0 mm 5 mps 756 mmHg 56%
17:00 +9°C° 0 mm 5 mps 756 mmHg 56%
18:00 +8°C° 0 mm 5 mps 756 mmHg 56%
19:00 +7°C° 0 mm 4 mps 757 mmHg 57%
20:00 +6°C° 0 mm 4 mps 757 mmHg 58%
21:00 +6°C° 0 mm 4 mps 757 mmHg 60%
22:00 +5°C° 0 mm 4 mps 757 mmHg 62%
23:00 +5°C° 0 mm 4 mps 757 mmHg 64%

Tomorrow, 17 April, Saturday

Time Temperature Precipitation Wind Pressure Humidity
00:00 +4°C° 0 mm 4 mps 757 mmHg 67%
01:00 +4°C° 0 mm 4 mps 757 mmHg 70%
02:00 +3°C° 0 mm 4 mps 757 mmHg 72%
03:00 +3°C° 0 mm 4 mps 757 mmHg 73%
04:00 +3°C° 0 mm 4 mps 757 mmHg 73%
05:00 +3°C° 0 mm 4 mps 757 mmHg 74%
06:00 +4°C° 0 mm 4 mps 757 mmHg 71%
07:00 +4°C° 0 mm 4 mps 758 mmHg 68%
08:00 +5°C° 0 mm 4 mps 758 mmHg 65%
09:00 +7°C° 0 mm 4 mps 758 mmHg 60%
10:00 +8°C° 0 mm 5 mps 758 mmHg 55%
11:00 +10°C° 0 mm 5 mps 758 mmHg 50%
12:00 +10°C° 0 mm 5 mps 758 mmHg 47%
13:00 +12°C° 0 mm 5 mps 758 mmHg 44%
14:00 +13°C° 0 mm 5 mps 757 mmHg 40%
15:00 +12°C° 0 mm 5 mps 757 mmHg 42%
16:00 +10°C° 0 mm 5 mps 757 mmHg 44%
17:00 +11°C° 0 mm 4 mps 757 mmHg 45%
18:00 +10°C° 0 mm 4 mps 757 mmHg 50%
19:00 +7°C° 0 mm 4 mps 757 mmHg 55%
20:00 +6°C° 0 mm 4 mps 757 mmHg 60%
21:00 +5°C° 0 mm 4 mps 757 mmHg 63%
22:00 +5°C° 0 mm 3 mps 757 mmHg 66%
23:00 +4°C° 0 mm 3 mps 757 mmHg 69%

Day after tomorrow, 18 April, Sunday

Time Temperature Precipitation Wind Pressure Humidity
00:00 +4°C° 0 mm 3 mps 757 mmHg 71%
01:00 +3°C° 0 mm 3 mps 757 mmHg 73%
02:00 +3°C° 0 mm 3 mps 757 mmHg 76%
03:00 +2°C° 0 mm 3 mps 757 mmHg 77%
04:00 +2°C° 0 mm 3 mps 757 mmHg 78%
05:00 +2°C° 0 mm 3 mps 757 mmHg 79%
06:00 +3°C° 0 mm 4 mps 757 mmHg 72%
07:00 +5°C° 0 mm 4 mps 757 mmHg 65%
08:00 +7°C° 0 mm 5 mps 757 mmHg 58%
09:00 +8°C° 0 mm 5 mps 757 mmHg 53%
10:00 +9°C° 0 mm 5 mps 757 mmHg 48%
11:00 +10°C° 0 mm 5 mps 757 mmHg 43%
12:00 +12°C° 0 mm 5 mps 757 mmHg 42%
13:00 +12°C° 0 mm 5 mps 756 mmHg 41%
14:00 +12°C° 0 mm 5 mps 756 mmHg 40%
15:00 +12°C° 0 mm 5 mps 756 mmHg 42%
16:00 +12°C° 0 mm 5 mps 756 mmHg 45%
17:00 +11°C° 0 mm 4 mps 756 mmHg 48%
18:00 +10°C° 0 mm 4 mps 756 mmHg 53%
19:00 +8°C° 0 mm 4 mps 756 mmHg 58%
20:00 +7°C° 0 mm 3 mps 756 mmHg 63%
21:00 +7°C° 0 mm 3 mps 757 mmHg 67%
22:00 +5°C° 0 mm 3 mps 757 mmHg 72%
23:00 +4°C° 0 mm 3 mps 757 mmHg 76%

19 April, Monday

Time Temperature Precipitation Wind Pressure Humidity
00:00 +4°C° 0 mm 3 mps 757 mmHg 78%
01:00 +4°C° 0 mm 3 mps 757 mmHg 79%
02:00 +4°C° 0 mm 3 mps 757 mmHg 81%
03:00 +4°C° 0 mm 3 mps 757 mmHg 84%
04:00 +3°C° 0 mm 3 mps 757 mmHg 87%
05:00 +3°C° 0 mm 3 mps 757 mmHg 89%
06:00 +4°C° 0 mm 3 mps 757 mmHg 85%
07:00 +5°C° 0 mm 4 mps 758 mmHg 81%
08:00 +6°C° 0 mm 4 mps 758 mmHg 76%
09:00 +6°C° 0 mm 4 mps 758 mmHg 74%
10:00 +7°C° 0 mm 4 mps 758 mmHg 71%
11:00 +7°C° 0 mm 4 mps 758 mmHg 69%
12:00 +7°C° 0 mm 4 mps 757 mmHg 67%
13:00 +7°C° 0 mm 4 mps 757 mmHg 66%
14:00 +8°C° 0 mm 4 mps 757 mmHg 65%
15:00 +7°C° 0 mm 4 mps 757 mmHg 66%
16:00 +7°C° 0 mm 4 mps 757 mmHg 67%
17:00 +7°C° 0 mm 4 mps 757 mmHg 68%
18:00 +7°C° 0 mm 4 mps 757 mmHg 68%
19:00 +6°C° 0 mm 4 mps 757 mmHg 68%
20:00 +7°C° 0 mm 3 mps 757 mmHg 69%
21:00 +7°C° 0 mm 3 mps 756 mmHg 68%
22:00 +5°C° 0 mm 3 mps 756 mmHg 67%
23:00 +5°C° 0 mm 3 mps 756 mmHg 66%

20 April, Tuesday

Time Temperature Precipitation Wind Pressure Humidity
00:00 +4°C° 0 mm 4 mps 756 mmHg 67%
01:00 +4°C° 0 mm 4 mps 755 mmHg 68%
02:00 +3°C° 0 mm 4 mps 755 mmHg 69%
03:00 +3°C° 0 mm 4 mps 755 mmHg 68%
04:00 +3°C° 0 mm 4 mps 754 mmHg 67%
05:00 +1°C° 0 mm 4 mps 754 mmHg 66%
06:00 +2°C° 0 mm 5 mps 754 mmHg 64%
07:00 +2°C° 0 mm 5 mps 753 mmHg 63%
08:00 +3°C° 0 mm 5 mps 753 mmHg 61%
09:00 +5°C° 0 mm 5 mps 752 mmHg 61%
10:00 +5°C° 0 mm 6 mps 752 mmHg 61%
11:00 +5°C° 0 mm 6 mps 751 mmHg 62%
12:00 +7°C° 0 mm 6 mps 750 mmHg 60%
13:00 +8°C° 0 mm 7 mps 750 mmHg 59%
14:00 +9°C° 0 mm 7 mps 749 mmHg 58%
15:00 +8°C° 0.2 mm 7 mps 748 mmHg 63%
16:00 +8°C° 0.2 mm 7 mps 747 mmHg 68%
17:00 +6°C° 0.2 mm 7 mps 746 mmHg 73%
18:00 +6°C° 0.6 mm 7 mps 746 mmHg 76%
19:00 +5°C° 0.6 mm 8 mps 745 mmHg 79%
20:00 +5°C° 0.6 mm 8 mps 744 mmHg 83%
21:00 +5°C° 0.8 mm 7 mps 743 mmHg 85%
22:00 +4°C° 0.8 mm 7 mps 743 mmHg 87%
23:00 +4°C° 0.8 mm 7 mps 742 mmHg 89%

21 April, Wednesday

Time Temperature Precipitation Wind Pressure Humidity
00:00 +4°C° 0.5 mm 7 mps 742 mmHg 89%
01:00 +4°C° 0.5 mm 7 mps 741 mmHg 89%
02:00 +4°C° 0.5 mm 7 mps 741 mmHg 89%
03:00 +4°C° 0.1 mm 7 mps 740 mmHg 90%
04:00 +4°C° 0.1 mm 7 mps 739 mmHg 90%
05:00 +4°C° 0.1 mm 7 mps 739 mmHg 90%
06:00 +4°C° 0.3 mm 7 mps 738 mmHg 90%
07:00 +5°C° 0.3 mm 7 mps 738 mmHg 90%
08:00 +5°C° 0.3 mm 7 mps 737 mmHg 90%
09:00 +5°C° 0.2 mm 6 mps 738 mmHg 88%
10:00 +5°C° 0.2 mm 6 mps 738 mmHg 85%
11:00 +4°C° 0.2 mm 6 mps 739 mmHg 82%
12:00 +7°C° 0.1 mm 6 mps 739 mmHg 78%
13:00 +8°C° 0.1 mm 6 mps 739 mmHg 75%
14:00 +9°C° 0.1 mm 6 mps 739 mmHg 71%
15:00 +9°C° 0.2 mm 6 mps 739 mmHg 72%
16:00 +9°C° 0.2 mm 6 mps 739 mmHg 72%
17:00 +9°C° 0.2 mm 6 mps 739 mmHg 73%
18:00 +8°C° 0.1 mm 6 mps 739 mmHg 75%
19:00 +7°C° 0.1 mm 6 mps 739 mmHg 77%
20:00 +5°C° 0.1 mm 6 mps 740 mmHg 79%
21:00 +5°C° 0.2 mm 6 mps 740 mmHg 84%
22:00 +4°C° 0.2 mm 6 mps 740 mmHg 89%
23:00 +4°C° 0.2 mm 6 mps 740 mmHg 94%
Show more